TimeCDT,TemperatureF,Dew PointF,Humidity,Sea Level PressureIn,VisibilityMPH,Wind Direction,Wind SpeedMPH,Gust SpeedMPH,PrecipitationIn,Events,Conditions,WindDirDegrees,DateUTC
12:53 AM,79.0,43.0,28,29.86,10.0,South,3.5,-,N/A,,Clear,190,2013-07-14 05:53:00
1:53 AM,80.1,44.1,28,29.85,10.0,South,8.1,-,N/A,,Clear,190,2013-07-14 06:53:00
2:53 AM,75.9,45.0,33,29.84,10.0,Calm,Calm,-,N/A,,Mostly Cloudy,0,2013-07-14 07:53:00
3:53 AM,75.0,46.9,37,29.83,10.0,Calm,Calm,-,N/A,,Partly Cloudy,0,2013-07-14 08:53:00
4:53 AM,75.0,45.0,34,29.82,10.0,WSW,6.9,-,N/A,,Clear,240,2013-07-14 09:53:00
5:53 AM,73.9,45.0,35,29.83,10.0,WSW,8.1,-,N/A,,Clear,240,2013-07-14 10:53:00
6:53 AM,71.1,46.0,41,29.83,10.0,West,8.1,-,N/A,,Clear,260,2013-07-14 11:53:00
7:53 AM,73.0,-9999,N/A,29.83,10.0,West,10.4,-,N/A,,Scattered Clouds,270,2013-07-14 12:53:00
8:53 AM,82.9,48.0,29,29.83,10.0,West,16.1,-,N/A,,Scattered Clouds,270,2013-07-14 13:53:00
9:53 AM,88.0,48.9,26,29.83,10.0,West,18.4,23.0,N/A,,Scattered Clouds,280,2013-07-14 14:53:00
10:53 AM,93.0,46.9,20,29.81,10.0,WNW,12.7,-,N/A,,Scattered Clouds,290,2013-07-14 15:53:00
11:53 AM,97.0,44.1,16,29.80,10.0,WNW,10.4,-,N/A,,Mostly Cloudy,290,2013-07-14 16:53:00
12:53 PM,97.0,41.0,14,29.97,10.0,SSE,4.6,-,N/A,,Mostly Cloudy,150,2013-07-14 17:53:00
1:53 PM,98.6,42.8,15,29.75,10.0,South,5.8,-,N/A,,Mostly Cloudy,170,2013-07-14 18:53:00
2:17 PM,96.8,48.2,19,29.94,8.0,East,17.3,25.3,N/A,,Scattered Clouds,90,2013-07-14 19:17:00
2:31 PM,95.0,51.8,23,29.94,10.0,East,23.0,31.1,N/A,,Scattered Clouds,100,2013-07-14 19:31:00
2:53 PM,93.0,53.1,26,29.77,8.0,ESE,23.0,34.5,N/A,,Mostly Cloudy,110,2013-07-14 19:53:00
3:53 PM,93.0,53.1,26,29.76,10.0,ESE,21.9,29.9,N/A,,Mostly Cloudy,120,2013-07-14 20:53:00
4:53 PM,88.0,55.9,34,29.78,10.0,East,28.8,35.7,N/A,,Clear,100,2013-07-14 21:53:00
5:53 PM,79.0,55.9,45,29.83,10.0,East,23.0,38.0,N/A,,Partly Cloudy,80,2013-07-14 22:53:00
6:53 PM,75.9,57.9,54,29.84,10.0,East,24.2,28.8,0.00,,Overcast,100,2013-07-14 23:53:00
7:53 PM,71.1,55.0,57,29.84,10.0,ESE,26.5,39.1,0.00,Rain,Light Rain,110,2013-07-15 00:53:00
8:53 PM,66.0,57.0,73,29.92,10.0,East,20.7,31.1,0.01,,Mostly Cloudy,80,2013-07-15 01:53:00
9:03 PM,66.0,57.0,73,29.92,10.0,East,20.7,31.1,0.01,,Overcast,80,2013-07-15 02:03:00
9:53 PM,61.0,57.9,90,29.91,10.0,East,20.7,27.6,0.03,Rain,Light Rain,100,2013-07-15 02:53:00
10:53 PM,60.8,57.2,88,29.95,9.0,East,18.4,27.6,0.01,Rain,Light Rain,80,2013-07-15 03:53:00
11:39 PM,60.8,57.2,88,30.11,10.0,East,16.1,20.7,0.01,,Mostly Cloudy,80,2013-07-15 04:39:00
11:53 PM,61.0,57.9,90,29.95,10.0,East,16.1,23.0,0.01,,Overcast,90,2013-07-15 04:53:00